Weather Roundup
Issued by NWS

Home | Current Version | Previous Version | Graphics & Text | Print | Product List | Glossary Off
Versions: 1 2 3 4 5 6 7 8 9 10 11 12 13 14 15 16 17 18 19 20 21 22 23 24 25 26 27 28 29 30 31 32 33 34 35 36 37 38 39 40 41 42 43 44 45 46 47 48 49 50

534
NZUS93 KARX 081810
HRRWXR

CURRENT HOURLY OBSERVATIONS ACROSS
MUCH OF THE UPPER MISSISSIPPI VALLEY
NATIONAL WEATHER SERVICE LA CROSSE WI
1200 PM CST MON FEB 08 2016


...SOUTHEAST MINNESOTA...


CITY           SKY/WX    TMP DP  RH WIND       PRES   REMARKS
ROCHESTER      CLOUDY    12   6  77 NW28      29.86R BLWGSNOWWCI  -9
ROCHESTER/MAYO CLOUDY    13   6  73 NW16G26   29.87S WCI  -3
WINONA         CLOUDY    19  10  68 NW18G25   29.88R WCI   4
AUSTIN         CLOUDY    12   7  79 NW18G32   29.89S WCI  -5
ALBERT LEA     CLOUDY    12   7  79 NW22G32   29.91S HAZE    WCI  -7
DODGE CENTER   CLOUDY    12   7  79 NW18G26   29.87S WCI  -5
PRESTON        CLOUDY    14   6  70 NW20G29   29.84S WCI  -4
OWATONNA       CLOUDY    12   7  79 NW23      29.92F HAZE    WCI  -7
FARIBAULT      CLOUDY    14   5  67 NW18G24   29.94S WCI  -3
$$

...ELSEWHERE IN MINNESOTA...


CITY           SKY/WX    TMP DP  RH WIND       PRES   REMARKS
MINNEAPOLIS    CLOUDY    14   4  64 NW20G26   29.95S WCI  -3
INTNL FALLS    CLOUDY     6  -2  69 NW17      29.97F HAZE    WCI -13
DULUTH         FLURRIES  10   1  67 NW20G29   29.83S WCI  -9
RED WING       FLURRIES  14   3  62 NW13G20   29.91F WCI   0
REDWOOD FALLS  LGT SNOW  15   7  70 NW22G35   30.04F WCI  -3
MANKATO        CLOUDY   N/A N/A N/A NW24G31   29.96F
WORTHINGTON    CLOUDY   N/A N/A N/A NW32G40   30.05R VSB 1/4
FAIRMONT       CLOUDY   N/A N/A N/A NW28G40   29.96F
$$

...SOUTHWEST WISCONSIN...


CITY           SKY/WX    TMP DP  RH WIND       PRES   REMARKS
LA CROSSE      CLOUDY    19   9  65 NW21      29.83R WCI   3
PRAIRIE DU CHI CLOUDY    21  10  62 NW18G25   29.81S WCI   6
BOSCOBEL       CLOUDY    22  12  65 N10G18    29.79S WCI  11
LONE ROCK      CLOUDY    22  12  65 NW10G22   29.76R WCI  11
PLATTEVILLE    CLOUDY    21  15  76 NW15      29.74S WCI   8
FORT MC COY    CLOUDY    19  11  72 NW14G21   29.80S WCI   6
CAMP DOUGLAS   CLOUDY    19  18  93 NW13      29.75R WCI   7
VIROQUA        CLOUDY    19  11  73 NW15      29.75S WCI   4
WIS DELLS      CLOUDY    21  13  71 N12G22    29.71S WCI  10
$$

...ELSEWHERE IN WISCONSIN...


CITY           SKY/WX    TMP DP  RH WIND       PRES   REMARKS
MILWAUKEE      LGT SNOW  27  22  81 NW14      29.65S WCI  16
MADISON        CLOUDY    23  15  71 NW13G20   29.70S WCI  11
GREEN BAY      LGT SNOW  32  26  78 NW10      29.63S WCI  24
EAU CLAIRE     CLOUDY    16   5  62 NW15      29.85R WCI   1
BLACK RVR FLS  CLOUDY    19   9  65 NW9G20    29.81R WCI   7
MEDFORD        CLOUDY    18  14  83 NW14      29.71R WCI   4
WAUSAU         CLOUDY    26  18  71 N9        29.67R WCI  17
WIS RAPIDS     CLOUDY    22  13  68 NW12      29.72S WCI  10
MARSHFIELD     CLOUDY    19  11  70 NW17      29.71R WCI   4
RICE LAKE      FLURRIES  13   5  70 NW12G17   29.87S WCI  -1
$$

...NORTHEAST IOWA...


CITY           SKY/WX    TMP DP  RH WIND       PRES   REMARKS
WATERLOO       LGT SNOW  15   8  73 NW28G33   29.88F WCI  -5
DUBUQUE        CLOUDY    19  12  74 NW14      29.76S WCI   6
DECORAH        FLURRIES  16   9  73 NW18G26   29.81S WCI  -1
MASON CITY     LGT SNOW  13   7  77 NW25G40   29.93R WCI  -7
CHARLES CITY   CLOUDY    14   9  79 NW25G32   29.88S WCI  -5
OELWEIN        SNOW      14  10  85 NW24G33   29.84S VSB 1/2 WCI  -5
$$

...ELSEWHERE IN IOWA...


CITY           SKY/WX    TMP DP  RH WIND       PRES   REMARKS
DES MOINES     BLWGSNOW  18   8  65 NW35G45   29.97F VSB 1   WCI  -3
IOWA CITY      LGT SNOW  18  10  71 NW22G32   29.88R WCI   1
FORT DODGE     PTSUNNY   18   7  62 NW14G31   30.00S WCI   4
MARSHALLTOWN   CLOUDY    15   7  70 NW30G43   29.92F WCI  -5
CEDAR RAPIDS   LGT SNOW  16  11  80 NW25G32   29.85R WCI  -3
$$

...NORTHERN ILLINOIS...


CITY           SKY/WX    TMP DP  RH WIND       PRES   REMARKS
CHICAGO-OHARE  FLURRIES  28  22  78 NW12      29.66S WCI  18
CHICAGO-MIDWAY CLOUDY    31  20  63 W14       29.67S WCI  21
MOLINE         LGT SNOW  21  13  71 NW20G28   29.80S WCI   6
ROCKFORD       CLOUDY    25  18  74 NW14      29.72S WCI  13
PEORIA         LGT SNOW  21  14  74 NW15G22   29.79F WCI   8
$$

NOTE: "FAIR" INDICATES FEW OR NO CLOUDS BELOW 12,000 FEET WITH NO
SIGNIFICANT WEATHER AND/OR OBSTRUCTIONS TO VISIBILITY. WIND
SPEEDS ARE IN MILES-PER-HOUR.




USA.gov is the U.S. government's official web portal to all federal, state and local government web resources and services.